Location: Songkhla
(7.2000°N, 100.6000°E)
Time: 15:40:00
(UTC+07:00)

ISS - Visible Passes

Search period start: 23 February 2018 00:00
Search period end: 05 March 2018 00:00
Orbit: 402 x 407 km, 51.6° (Epoch: 23 February)

Date Brightness Start Highest point End Pass type
(mag) Time Alt. Az. Time Alt. Az. Time Alt. Az.
23 Feb -3.3 05:28:34 10° SSW 05:31:47 59° SE 05:35:00 10° NE visible
24 Feb -1.0 04:40:30 19° ESE 04:40:30 19° ESE 04:42:10 10° ENE visible
25 Feb -2.3 05:24:51 23° NNW 05:24:51 23° NNW 05:26:36 10° N visible
